Location: Drocourt
(49.0571°N, 1.7669°E)
Time: 10:15:05
(UTC+00:00)

USA 215 - Visible Passes

Search period start: 28 September 2023 00:00
Search period end: 08 October 2023 00:00
Orbit: 1101 x 1107 km, 123.0° (Epoch: 22 September)

Date Brightness Start Highest point End Pass type
(mag) Time Alt. Az. Time Alt. Az. Time Alt. Az.
28 Sep 5.4 00:19:20 10° E 00:20:19 15° ENE 00:20:19 15° ENE visible
28 Sep 3.3 02:01:36 10° ESE 02:07:41 73° ENE 02:07:41 73° ENE visible
28 Sep 3.6 03:45:19 10° SSE 03:51:28 42° SW 03:55:04 24° WNW visible
28 Sep 4.5 18:29:21 10° E 18:33:40 18° ESE 18:37:56 10° SSE visible
28 Sep 3.2 20:16:26 53° E 20:17:36 61° SE 20:24:03 10° SW visible
28 Sep 4.5 22:03:52 31° W 22:03:52 31° W 22:07:04 10° W visible
28 Sep5.923:51:18WNW23:51:18WNW23:36:08ENEvisible
29 Sep 4.2 01:19:08 10° E 01:23:30 41° ENE 01:23:30 41° ENE visible
29 Sep 3.1 03:01:54 10° SE 03:08:27 72° SW 03:10:52 42° WNW visible
29 Sep 4.3 04:47:14 10° S 04:52:14 23° SW 04:57:14 10° WNW visible
29 Sep 3.7 19:33:04 32° ESE 19:34:30 35° SE 19:40:23 10° SSW visible
29 Sep 4.0 21:20:29 42° WSW 21:20:29 42° WSW 21:24:32 10° WSW visible
30 Sep 5.0 00:36:50 10° E 00:39:13 23° ENE 00:39:13 23° ENE visible
30 Sep 3.3 02:19:06 10° ESE 02:25:39 77° NNE 02:26:34 66° NNW visible
30 Sep 3.6 04:02:50 10° SSE 04:08:59 42° SW 04:13:56 16° WNW visible
30 Sep 4.4 18:49:42 17° ESE 18:51:11 18° ESE 18:55:29 10° SSE visible
30 Sep 3.8 20:37:09 43° SSW 20:37:09 43° SSW 20:41:34 10° SW visible
30 Sep 5.6 22:24:35 10° W 22:24:35 10° W 22:24:35 10° W visible
30 Sep 5.6 23:54:28 10° ENE 23:54:52 12° ENE 23:54:52 12° ENE visible
01 Oct 3.8 01:36:39 10° E 01:42:13 53° NE 01:42:13 53° NE visible
01 Oct 3.1 03:19:25 10° SE 03:25:57 71° SW 03:29:34 29° WNW visible
01 Oct 4.3 05:04:47 10° S 05:09:45 23° SW 05:14:45 10° WNW visible
01 Oct 4.1 19:53:47 31° SSE 19:53:47 31° SSE 19:57:54 10° SSW visible
01 Oct 5.3 21:41:12 14° WSW 21:41:12 14° WSW 21:42:02 10° WSW visible
02 Oct 4.7 00:54:20 10° E 00:57:48 31° ENE 00:57:48 31° ENE visible
02 Oct 3.3 02:36:37 10° ESE 02:43:09 77° NNE 02:45:09 48° NW visible
02 Oct 3.6 04:20:21 10° SSE 04:26:30 42° SW 04:32:30 11° WNW visible
02 Oct 4.7 19:10:23 17° SE 19:10:23 17° SE 19:13:01 10° SSE visible
02 Oct 5.1 20:57:49 17° SW 20:57:49 17° SW 20:59:04 10° SW visible
03 Oct 5.4 00:11:59 10° ENE 00:13:20 17° ENE 00:13:20 17° ENE visible
03 Oct 3.7 01:54:09 10° E 02:00:32 57° NNE 02:00:41 57° NNE visible
03 Oct 3.2 03:36:56 10° SE 03:43:29 71° SW 03:48:02 22° WNW visible
03 Oct 4.4 05:22:18 10° S 05:27:16 23° SW 05:32:14 10° WNW visible
03 Oct 5.0 20:14:22 15° S 20:14:22 15° S 20:15:26 10° SSW visible
04 Oct 4.4 01:11:51 10° E 01:16:10 38° NE 01:16:10 38° NE visible
04 Oct 3.3 02:54:07 10° ESE 03:00:41 78° NNE 03:03:31 37° NW visible
04 Oct 3.7 04:37:52 10° SSE 04:44:00 42° SW 04:50:11 10° WNW visible
05 Oct 5.1 00:29:29 10° ENE 00:31:38 21° ENE 00:31:38 21° ENE visible
05 Oct 3.7 02:11:40 10° E 02:18:03 57° NNE 02:18:59 52° NNW visible
05 Oct 3.2 03:54:26 10° SE 04:00:59 71° SW 04:06:19 16° WNW visible
05 Oct 5.7 23:46:57 10° ENE 23:47:05 11° ENE 23:47:05 11° ENE visible
06 Oct 4.2 01:29:21 10° E 01:34:25 43° NE 01:34:25 43° NE visible
06 Oct 3.3 03:11:38 10° ESE 03:18:10 78° NNE 03:21:45 30° NW visible
06 Oct 3.7 04:55:23 10° SSE 05:01:31 41° SW 05:07:40 10° WNW visible
07 Oct 4.9 00:46:59 10° ENE 00:49:50 26° NE 00:49:50 26° NE visible
07 Oct 3.7 02:29:09 10° E 02:35:33 57° NNE 02:37:10 46° NNW visible
07 Oct 3.2 04:11:57 10° SE 04:18:30 70° SW 04:24:31 13° WNW visible
